TimeAKDT,TemperatureF,Dew PointF,Humidity,Sea Level PressureIn,VisibilityMPH,Wind Direction,Wind SpeedMPH,Gust SpeedMPH,PrecipitationIn,Events,Conditions,WindDirDegrees,DateUTC
12:53 AM,46.0,37.0,71,30.06,10.0,SSE,8.1,-,N/A,,Clear,150,2013-09-06 08:53:00
1:53 AM,42.1,36.0,79,30.05,10.0,SE,3.5,-,N/A,,Clear,140,2013-09-06 09:53:00
2:53 AM,42.1,36.0,79,30.04,10.0,SE,5.8,-,N/A,,Clear,140,2013-09-06 10:53:00
3:53 AM,44.1,37.0,76,30.02,10.0,ESE,8.1,-,N/A,,Clear,120,2013-09-06 11:53:00
4:53 AM,43.0,36.0,76,30.01,10.0,ENE,4.6,-,N/A,,Clear,70,2013-09-06 12:53:00
5:53 AM,35.1,33.1,92,29.99,10.0,North,3.5,-,N/A,,Clear,360,2013-09-06 13:53:00
6:53 AM,35.1,33.1,92,29.97,10.0,Calm,Calm,-,N/A,,Mostly Cloudy,0,2013-09-06 14:53:00
7:53 AM,39.9,36.0,86,29.93,10.0,North,5.8,-,N/A,,Overcast,10,2013-09-06 15:53:00
8:53 AM,41.0,37.9,89,29.91,10.0,Calm,Calm,-,0.01,Rain,Light Rain,0,2013-09-06 16:53:00
9:53 AM,39.9,37.9,93,29.88,8.0,North,5.8,-,0.03,Rain,Light Rain,350,2013-09-06 17:53:00
10:53 AM,41.0,39.0,93,29.86,6.0,North,5.8,-,0.07,Rain,Light Rain,10,2013-09-06 18:53:00
11:53 AM,41.0,39.0,93,29.83,8.0,North,5.8,-,0.06,Rain,Light Rain,10,2013-09-06 19:53:00
12:53 PM,42.1,41.0,96,29.79,10.0,NNE,6.9,-,0.04,Rain,Light Rain,30,2013-09-06 20:53:00
1:53 PM,43.0,41.0,93,29.76,9.0,NNE,5.8,-,0.05,Rain,Light Rain,30,2013-09-06 21:53:00
2:53 PM,44.1,42.1,93,29.73,7.0,NNE,6.9,-,0.10,Rain,Light Rain,20,2013-09-06 22:53:00
3:18 PM,44.1,42.1,93,29.67,7.0,NNE,8.1,-,0.06,Rain,Rain,30,2013-09-06 23:18:00
3:53 PM,45.0,43.0,93,29.69,6.0,NNE,3.5,-,0.13,Rain,Light Rain,20,2013-09-06 23:53:00
4:53 PM,46.0,44.1,93,29.67,7.0,NNE,3.5,-,0.13,Rain,Light Rain,30,2013-09-07 00:53:00
5:53 PM,46.9,45.0,93,29.67,10.0,SE,10.4,-,0.09,Rain,Light Rain,130,2013-09-07 01:53:00
6:53 PM,50.0,48.0,93,29.65,10.0,SSE,19.6,25.3,0.04,Rain,Light Rain,150,2013-09-07 02:53:00
7:53 PM,51.1,48.0,89,29.62,10.0,SSE,20.7,32.2,0.01,Rain,Light Rain,160,2013-09-07 03:53:00
8:53 PM,50.0,46.9,89,29.61,10.0,South,15.0,21.9,0.00,,Clear,180,2013-09-07 04:53:00
9:53 PM,50.0,46.0,86,29.61,10.0,SSE,16.1,24.2,N/A,,Clear,160,2013-09-07 05:53:00
10:53 PM,48.9,46.0,90,29.60,10.0,SSE,19.6,26.5,N/A,,Clear,150,2013-09-07 06:53:00
11:53 PM,48.9,46.0,90,29.62,10.0,SSE,11.5,-,N/A,,Partly Cloudy,160,2013-09-07 07:53:00